Weather in Kudryashovskiy

Russia / Novosibirsk Oblast     55°05′19″N   82°46′27″E
temp.,
°C
wind,
m/s
gust,
m/s
humid.,
%
clouds,
%
prec.,
mm/h
press.,
hPa
HPBL,
m
5 march, fri
fri501:00−7s71588100 0.0 1015472
04:00−7s71485100 0.0 1013499
07:00−7s71482100 0.0 1011601
10:00−7s81589100 0.1 1010682
13:00−4sw91488100 0.4 1010899
16:00−3wsw101583100 0.2 10131100
19:00−5sw7168398 0.3 1017792
22:00−5sw91693100 0.2 10171058
6 march, sat
sat601:00−5sw81592100 0.8 10171009
04:00−5sw91593100 0.9 1016890
07:00−6ssw91687100 1.4 1016768
10:00−6ssw91688100 0.1 1015857
13:00−5ssw91687100 0.2 1014932
16:00−5sw101591100 0.2 10121030
19:00−4ssw91591100 0.8 1012980
22:00−3sw81590100 0.1 1010909
7 march, sun
sun701:00−3sw71491100 0.2 1011792
04:00−3sw7149096 0.2 1012638
07:00−7w4108497 0.5 1015327
10:00−11wsw388986 0.0 1017224
13:00−7wsw368293 0.0 1019337
16:00−5sw4780100 0.0 1019457
19:00−9ssw228191 0.0 102021
22:00−8sse479575 0.0 1019119
8 march, mon
mon801:00−2s7149187 0.0 1017686
04:00−2s81491100 0.0 1014643
07:00−5s71490100 0.0 1014420
10:00−4ssw81588100 0.0 1013456
13:00−1ssw81487100 0.0 1012526
16:000ssw81384100 0.0 1009650
19:00−2ssw61286100 0.0 1008646
22:00−3ssw51389100 0.0 1008636
9 march, tue
tue901:00−1sw61295100 0.1 1009592
04:00−3w61191100 0.8 1012501
07:00−11w5109396 0.8 1019246
10:00−12wsw499355 0.0 1024284
13:00−9wsw588546 0.0 1026508
16:00−8sw588342 0.0 1026570
19:00−10s499151 0.0 1026154
22:00−11s5119188 0.0 1025259